Location: *
(38.9800°N, 16.0500°E)
Time: 22:02:38
(UTC+00:00)

SJ 16-02 - Pass Details

Date: 07 April 2020
Orbit: 606 x 616 km, 75.0° (Epoch: 25 May)

Event Time Altitude Azimuth Distance (km) Brightness Sun altitude
Exits shadow 01:00:16 12° 1° (N) 1,826 4.3 -36.0°
Drops below altitude 10° 01:00:38 10° 3° (N) 1,965 4.5 -36.0°
Sets 01:02:58 0° 11° (N) 2,872 5.6 -35.7°
